Regional Weather Roundup
Issued by NWS

Home | Current Version | Previous Version | Text Only | Print | Product List | Glossary Off
Versions: 1 2 3 4 5 6 7 8 9 10 11 12 13 14 15 16 17 18 19 20 21 22 23 24 25 26 27 28 29 30 31 32 33 34 35 36 37 38 39 40 41 42 43 44 45 46 47 48 49 50

000
ASUS43 KFSD 232210
RWRSD

WEATHER ROUNDUP FOR SOUTH DAKOTA
NATIONAL WEATHER SERVICE SIOUX FALLS SD
500 PM CDT WED APR 23 2014

NOTE: "FAIR" INDICATES FEW OR NO CLOUDS BELOW 12,000 FEET WITH NO
SIGNIFICANT WEATHER AND/OR OBSTRUCTIONS TO VISIBILITY.


SDZ001>005-009-010-012>017-232300-
NORTHWEST AND NORTH CENTRAL SOUTH DAKOTA

CITY           SKY/WX    TMP DP  RH WIND       PRES   REMARKS
BUFFALO          N/A     52  34  50 W23G36    29.61R
FAITH            N/A     56  40  55 NW25G36   29.63R
MOBRIDGE       PTSUNNY   63  44  50 S3        29.53S
$$

SDZ012>016-024>037-041>051-057-063-072>074-232300-
SOUTHWEST AND SOUTH CENTRAL SOUTH DAKOTA

CITY           SKY/WX    TMP DP  RH WIND       PRES   REMARKS
RAPID CTY ARPT PTSUNNY   57  38  48 N33G41    29.63R
PIERRE         CLOUDY    72  44  36 CALM      29.49R
CUSTER         MOSUNNY   53  19  26 W18G30    29.69R
ELLSWORTH AFB  MOSUNNY   57  38  49 N28G37    29.63R
PHILIP         SUNNY     65  43  44 NW31G44   29.56R
PINE RIDGE     SUNNY     67  24  19 W15G32    29.62R
SPEARFISH      FAIR      52  36  54 NW16G22   29.72R
WINNER         FAIR      76  42  29 NW12G23   29.50F
$$

SDZ004>011-016>023-039-040-232300-
NORTHEAST SOUTH DAKOTA

CITY           SKY/WX    TMP DP  RH WIND       PRES   REMARKS
ABERDEEN       CLOUDY    57  39  51 SE25G31   29.62R
WATERTOWN      CLOUDY    50  38  63 SE16G26   29.68F
SISSETON         N/A     42  38  85 SE24G36   29.75F
$$

SDZ017-020-022-023-036>040-048>070-232300-
SOUTHEAST SOUTH DAKOTA

CITY           SKY/WX    TMP DP  RH WIND       PRES   REMARKS
SIOUX FALLS    PTSUNNY   63  40  42 SE26G36   29.64F
HURON          PTSUNNY   69  41  36 SE21G33   29.55S
CHAMBERLAIN      N/A     77  44  30 CALM      29.49F
MITCHELL       MOSUNNY   70  44  39 SE22G33   29.54F
YANKTON        PTSUNNY   68  45  42 SE26G32   29.58F
$$

ABBREVIATIONS USED IN REMARKS
   TC - TEMPERATURE IN CELSIUS
  WCI - WIND CHILL INDEX
   HX - HEAT INDEX
  VSB - VISIBILITY




USA.gov is the U.S. government's official web portal to all federal, state and local government web resources and services.